Wind_Speed
5 6 7 7 7 6 3 3 4 4 4 4 4 4 4 5 6 7 7 8 8 8 10 11 10 9 9 9 6 5 5 4 3 2 7 12 13 16 17 16 17 17 18 19 21 21 19 19 19 19 18 18 17 17 17 17 16 16 16 15 13 11 11 10 12 13 13 13 12 11 11 12 12 11 9 9 9 8 7 7 7 6 6 6 6
6 6 7 7 6 5 3 3 4 3 3 3 3 3 4 4 4 5 6 6 7 7 9 9 8 7 7 7 6 6 5 4 3 3 5 9 12 16 17 16 17 17 18 20 20 19 19 18 19 19 18 18 18 17 17 17 16 17 17 16 13 12 11 10 12 13 14 14 14 13 12 12 12 12 11 10 10 9 8 8 8 7 8 8 7
5 6 7 6 5 4 2 2 3 1 1 2 3 4 4 4 4 5 5 5 6 6 7 8 8 7 7 7 7 6 6 5 3 3 4 7 10 15 17 16 16 17 19 20 21 19 19 19 19 19 19 19 19 18 18 17 17 17 17 16 14 13 12 11 12 13 13 14 15 16 15 15 14 13 13 12 12 11 10 9 8 8 9 9 8
6 5 6 6 4 4 3 2 2 1 0 1 3 4 4 5 6 6 7 7 7 6 6 8 9 9 9 10 9 5 6 8 5 5 6 7 9 13 17 17 17 17 19 21 21 21 20 19 20 20 20 20 20 18 18 19 18 17 18 18 16 15 13 12 12 12 13 13 13 15 16 16 16 15 15 14 13 12 12 11 10 10 10 11 10
6 4 5 6 5 4 4 3 2 2 1 0 2 4 4 5 7 8 9 9 9 7 7 9 10 10 10 12 11 6 7 11 10 11 11 10 10 12 16 18 18 18 19 20 21 22 22 21 20 21 21 20 20 19 19 19 19 19 19 18 17 16 15 13 12 12 13 13 13 13 13 14 15 15 15 16 16 15 14 13 12 12 12 12 12
6 4 3 4 4 4 4 3 3 2 1 1 2 3 3 4 5 7 8 8 8 8 8 10 10 10 10 11 11 8 9 10 10 13 15 13 12 13 15 16 18 19 19 20 21 22 23 24 23 22 22 21 21 20 20 19 19 19 20 19 18 17 16 14 13 13 13 14 14 14 13 13 13 14 14 16 17 18 17 16 15 15 14 14 14
7 5 2 3 2 1 2 3 4 3 3 4 4 2 1 2 4 5 6 6 7 8 8 9 9 10 9 9 9 10 11 10 9 11 13 14 14 15 15 15 17 20 21 21 21 22 24 25 24 23 23 22 22 21 21 21 20 20 20 20 19 18 17 16 15 15 15 14 14 14 14 14 13 13 13 14 15 16 17 17 17 17 16 16 15
7 7 3 3 3 1 1 2 2 2 3 5 4 3 2 3 4 5 5 5 7 8 8 8 9 9 8 9 9 10 11 10 10 10 10 11 13 15 15 14 15 19 22 22 22 23 24 25 25 24 23 23 23 23 22 22 22 21 21 21 19 18 17 17 17 17 16 15 15 15 15 15 15 14 13 13 13 14 15 15 16 16 16 15 15
6 7 5 4 4 3 2 3 1 1 2 2 2 4 4 4 4 5 5 5 6 8 8 9 9 9 9 9 9 10 10 10 10 11 11 11 13 14 15 14 14 16 20 22 23 24 25 25 25 25 24 24 24 24 23 23 23 22 21 21 20 19 18 18 18 18 17 17 17 16 16 16 16 15 15 15 14 14 14 14 14 15 15 14 13
5 5 6 6 6 5 4 4 4 3 3 2 2 4 4 3 4 4 4 4 6 6 7 8 9 10 10 11 11 11 11 11 11 11 12 12 13 14 15 15 15 16 18 20 23 25 26 26 26 25 25 25 25 26 25 24 24 23 22 21 20 20 21 20 20 19 18 19 18 18 18 17 17 17 17 17 17 16 15 14 14 14 14 14 13
6 4 5 5 6 6 6 6 6 6 6 5 5 5 4 3 4 4 4 5 6 6 7 7 8 9 10 12 12 13 13 12 13 13 13 14 14 14 14 16 16 16 19 21 21 23 25 25 26 26 26 25 26 26 26 26 25 24 23 23 23 23 23 23 22 21 20 19 19 19 19 19 18 18 19 19 18 18 17 16 16 15 15 15 14
7 6 5 5 6 6 6 6 7 8 8 8 8 9 7 7 6 5 6 7 7 8 8 9 10 10 11 11 11 11 12 12 14 15 14 15 16 15 14 16 17 17 20 22 22 22 22 22 22 25 27 26 26 26 26 27 27 26 25 25 25 25 25 25 23 22 22 21 21 21 20 20 20 20 20 20 19 18 18 18 17 17 16 16 16
9 8 8 7 6 6 7 7 7 7 8 9 10 10 10 11 10 9 9 9 9 9 9 11 10 9 10 11 13 11 9 9 11 15 16 16 16 15 15 16 17 17 20 21 21 22 22 20 19 22 25 26 27 27 27 28 28 28 28 27 26 25 26 26 25 25 24 24 23 22 21 20 20 20 20 19 19 18 18 18 18 17 17 17 17
12 11 9 8 7 7 8 8 8 8 7 7 8 9 11 12 12 14 13 10 10 9 10 10 7 6 6 9 12 10 8 8 6 9 12 16 17 16 17 18 18 17 18 19 20 21 21 21 20 19 21 24 26 27 28 29 29 29 29 29 28 27 26 25 25 26 25 25 24 23 21 20 20 20 19 19 19 19 19 19 19 19 18 19 18
15 14 12 11 10 10 10 10 10 10 9 9 8 9 11 13 13 15 14 12 12 10 10 8 5 6 6 4 4 6 7 6 5 9 11 10 15 16 17 19 18 17 17 19 20 20 20 21 21 21 21 23 25 25 26 27 29 30 30 30 29 29 28 26 25 25 24 24 24 22 21 20 20 19 19 18 18 19 19 19 20 20 20 20 20
18 18 16 15 14 13 13 13 13 13 12 12 11 11 12 14 14 14 14 14 14 13 12 10 7 5 3 2 1 2 3 3 7 14 12 8 9 14 16 18 18 18 18 20 21 20 19 20 22 23 23 24 24 24 24 24 26 28 29 29 28 27 28 28 27 25 25 24 23 22 22 21 21 20 19 18 17 18 19 19 19 20 20 21 20
20 20 19 18 18 17 16 16 16 15 15 14 13 12 12 13 13 13 14 13 15 16 14 12 9 6 3 3 2 2 3 3 6 9 11 12 7 10 14 16 16 17 18 19 20 20 19 20 21 23 23 23 23 24 25 24 25 26 26 25 24 24 28 29 28 27 26 24 22 22 22 22 21 20 19 18 18 19 19 19 18 19 20 20 20
20 20 20 20 19 19 19 19 18 17 17 16 15 14 13 12 12 13 14 14 15 15 15 13 10 9 7 6 6 5 6 5 3 4 10 13 7 4 10 13 14 16 17 18 20 21 20 19 20 22 22 22 22 24 25 25 24 23 23 22 20 21 26 29 29 29 27 24 22 22 23 23 22 22 20 19 20 20 20 19 19 19 20 20 20
18 18 18 18 18 19 20 20 20 19 18 18 17 16 15 14 13 13 14 14 14 14 15 15 12 11 9 9 10 11 10 8 4 3 5 8 9 8 7 9 13 15 18 19 19 20 20 20 21 21 20 20 22 23 24 23 22 21 21 20 20 21 23 25 29 30 27 24 24 24 25 24 24 22 20 20 20 20 20 20 20 20 20 20 21
18 18 18 18 18 19 20 20 20 19 19 18 18 18 17 16 15 14 14 13 13 13 14 15 15 14 13 12 12 12 12 11 10 8 3 3 9 12 10 8 11 16 18 19 19 18 19 19 21 21 19 19 20 22 22 21 20 20 18 17 17 18 18 20 25 26 25 24 24 24 25 25 25 23 22 20 18 19 20 20 21 21 21 22 22
19 18 18 18 19 19 19 20 20 19 19 18 18 18 18 18 18 17 17 15 14 13 14 15 16 15 15 15 15 14 13 12 12 11 8 4 4 6 8 7 9 16 20 20 18 17 17 17 19 19 18 18 18 19 20 19 19 18 17 15 14 14 14 15 18 19 20 20 18 19 21 23 23 22 20 19 18 20 19 19 21 22 23 23 23
19 19 18 18 19 19 19 19 19 19 19 19 20 20 19 18 18 18 18 17 15 15 15 17 17 15 15 17 17 18 16 11 8 8 7 6 4 4 7 5 7 14 19 21 20 18 16 16 18 18 18 17 16 16 16 16 16 16 15 14 13 12 13 13 14 15 17 17 15 16 18 20 20 19 18 17 16 17 17 17 19 21 22 22 22
19 19 18 18 18 18 18 17 18 19 19 20 21 21 20 18 18 18 18 18 17 16 16 17 18 16 14 15 15 16 17 15 14 12 8 5 4 4 7 8 8 12 17 20 21 19 16 16 18 18 18 17 16 15 14 14 14 14 14 13 12 12 12 13 15 16 17 18 15 13 14 15 16 16 15 14 15 15 15 17 18 18 19 20 20
21 20 19 20 19 17 18 17 17 19 19 19 20 21 20 17 18 18 18 18 18 18 18 19 18 15 13 14 15 15 18 21 23 21 14 10 8 4 7 10 7 11 16 17 20 20 18 18 19 19 19 19 18 16 14 14 14 13 12 12 11 11 11 10 11 12 13 14 12 11 10 11 13 13 11 10 13 13 11 12 14 14 12 12 12
23 21 20 21 20 19 20 19 17 18 18 19 20 20 19 17 17 18 19 20 19 19 20 19 18 16 13 14 15 15 17 20 23 24 20 15 10 6 8 11 7 8 12 14 18 19 20 22 20 18 20 21 19 17 15 14 14 13 12 12 11 10 9 7 6 6 8 10 9 8 9 9 8 8 8 7 8 8 6 7 9 8 6 6 8
22 21 21 22 21 20 21 19 18 19 19 19 20 21 21 19 17 18 19 21 21 20 20 19 18 17 15 14 14 15 17 19 20 21 20 18 14 9 8 9 8 8 9 12 16 16 19 23 23 20 21 23 22 19 17 16 14 13 13 13 12 11 10 9 8 6 6 6 5 4 6 8 9 9 9 8 7 6 6 5 5 6 6 7 9
21 21 21 22 22 22 22 21 21 21 20 20 21 22 23 21 18 17 18 20 21 21 20 19 18 17 16 15 16 16 17 18 19 19 19 19 19 17 11 6 6 6 5 9 13 16 20 22 22 23 22 23 24 20 18 16 14 13 14 13 12 12 11 12 10 7 5 4 4 4 5 5 6 6 6 5 5 6 6 6 5 6 7 7 8
20 20 20 21 22 23 22 22 22 21 20 20 21 22 23 21 17 16 17 19 21 22 22 20 20 19 18 17 17 18 18 18 19 20 20 20 21 21 17 10 6 4 3 5 6 12 21 20 18 23 25 24 24 22 18 17 15 14 14 14 13 13 13 12 10 7 6 5 5 5 5 4 3 3 4 4 4 5 5 5 6 6 7 8 8
19 18 19 21 22 23 23 23 22 20 20 21 21 22 22 20 16 14 18 21 22 23 23 21 21 20 20 20 20 20 20 19 20 20 21 21 22 22 22 18 12 6 3 4 4 7 17 21 20 23 27 27 25 22 20 18 16 16 15 15 14 14 13 11 9 7 6 5 5 4 4 4 3 3 3 4 5 6 7 7 7 8 9 9 9
17 18 19 20 22 21 21 22 21 21 21 22 23 23 21 19 17 17 20 22 23 23 22 20 20 20 20 21 20 20 21 21 21 21 21 21 22 23 24 23 19 13 8 5 5 9 14 21 24 24 27 30 28 24 22 20 18 18 17 16 15 14 13 11 10 8 6 4 4 4 3 3 3 3 4 5 6 7 8 9 10 11 11 11 11
17 18 18 19 19 19 19 20 20 21 21 21 23 22 19 17 19 20 21 22 23 22 21 19 19 20 21 21 20 20 20 21 22 22 22 22 22 24 25 25 23 20 17 10 5 10 13 16 23 27 28 31 32 28 24 21 20 19 17 16 15 14 13 12 10 9 8 5 4 3 3 3 3 4 4 6 7 8 9 10 12 12 12 13 13
16 16 16 17 18 18 19 19 19 20 21 22 22 19 17 20 22 22 21 22 22 21 21 20 20 20 20 21 21 20 20 20 21 22 24 23 23 23 25 27 24 21 22 16 7 9 16 14 16 25 29 30 32 32 27 24 22 20 18 17 16 15 14 13 11 10 8 5 4 4 4 3 3 4 6 7 8 9 9 10 11 11 11 12 12
14 14 16 17 18 19 19 18 19 20 21 22 21 16 18 23 23 21 20 20 21 21 21 21 21 21 22 22 22 22 21 20 20 20 22 23 23 22 23 26 25 23 25 22 12 10 16 16 14 20 27 30 31 33 30 27 25 22 20 18 17 17 16 14 13 11 8 6 5 5 4 4 5 6 7 8 8 8 9 9 9 9 10 11 11
15 16 18 19 19 19 19 19 20 21 21 21 19 17 20 24 23 20 20 20 21 22 22 22 23 23 23 24 23 23 23 22 22 21 21 22 22 22 22 24 25 26 26 25 20 12 12 17 17 18 25 30 32 32 32 30 28 25 24 22 20 19 18 16 14 12 10 8 7 6 5 5 6 7 7 7 6 6 6 7 7 7 8 8 8
16 17 17 18 19 19 20 21 22 22 21 20 19 18 21 23 22 21 21 21 22 22 23 24 25 24 24 24 24 24 23 24 24 23 22 22 22 23 24 24 25 27 28 26 22 17 14 16 18 18 23 29 31 33 34 32 29 27 26 25 24 23 20 18 17 15 13 11 8 7 6 5 5 6 5 4 4 4 4 5 5 6 6 6 6
16 16 16 17 18 19 20 21 22 22 21 21 21 20 21 21 21 21 21 21 22 23 24 25 26 25 24 24 24 24 23 24 24 24 23 23 23 23 24 25 25 28 30 27 22 20 17 16 18 20 25 29 32 33 34 32 30 29 28 27 26 25 23 20 18 16 13 11 9 7 5 3 2 3 3 3 3 2 3 4 5 5 5 4 4
16 15 16 17 18 18 19 20 21 22 22 23 24 23 22 21 21 21 20 21 22 23 25 26 27 26 25 24 24 23 22 23 23 24 24 25 25 24 25 25 24 26 29 28 24 20 17 15 19 22 25 28 29 31 34 33 30 28 27 27 27 26 24 21 19 16 15 13 10 7 6 5 4 4 4 3 3 2 3 4 5 5 4 4 3
16 16 17 18 18 19 19 20 22 23 22 22 24 24 22 21 21 21 21 21 22 23 24 26 28 28 26 25 24 23 22 22 23 24 25 26 26 25 24 25 25 25 26 27 26 22 19 18 20 22 25 27 26 27 33 35 33 30 26 23 24 25 25 23 20 18 16 14 11 9 9 8 7 6 5 4 3 2 3 4 5 5 5 4 4
16 17 18 18 18 19 20 21 22 21 20 21 22 22 22 22 21 21 22 23 23 24 25 26 27 28 27 25 24 23 23 23 23 24 26 26 25 25 24 24 25 26 26 26 25 23 20 20 21 23 27 29 28 27 32 34 32 31 30 25 22 23 24 24 23 21 18 15 14 12 11 10 9 8 6 5 3 1 1 2 4 5 6 6 4
17 18 18 19 18 19 20 22 22 20 19 20 20 21 22 21 21 21 22 23 24 25 26 27 27 27 27 25 24 24 24 24 23 24 25 25 24 25 25 25 24 25 25 25 23 22 20 19 21 23 27 28 27 26 29 29 25 26 31 30 27 27 27 25 24 23 21 19 18 16 15 14 12 10 8 7 5 4 4 3 2 5 7 6 5
18 18 18 19 19 20 21 21 21 20 21 20 19 19 21 21 20 21 21 22 24 25 26 27 27 26 26 25 25 25 24 24 23 24 23 22 22 24 25 25 24 24 24 23 22 22 20 18 20 21 22 24 25 24 26 29 28 29 31 29 27 29 29 25 23 23 23 22 21 20 18 16 14 12 10 9 7 6 5 5 4 4 6 6 5
19 19 19 20 20 21 21 20 20 21 23 20 17 18 20 20 20 20 21 22 23 25 25 26 26 26 25 25 25 25 25 24 24 24 23 21 21 23 24 25 24 25 25 23 23 23 21 19 21 19 16 18 24 26 27 31 31 31 31 27 24 26 26 20 17 20 24 24 23 22 20 17 15 13 11 10 9 7 5 4 4 4 4 4 3
20 20 20 20 21 20 20 19 20 22 23 19 16 18 20 19 19 19 21 22 23 23 23 24 25 26 26 25 25 26 26 26 25 24 23 22 22 23 24 23 23 24 25 24 24 24 24 22 22 21 17 17 23 28 30 31 30 30 33 31 27 28 25 18 13 15 23 26 25 23 22 19 16 14 14 12 10 8 6 5 4 3 2 2 2
19 19 20 20 21 20 19 20 20 22 22 17 15 18 20 19 19 19 20 22 22 22 22 22 24 26 26 26 26 26 25 25 25 24 22 21 22 22 22 22 22 23 25 26 26 26 26 24 22 22 21 19 21 25 28 29 30 31 32 31 30 31 28 23 18 18 25 29 26 22 22 21 18 15 14 13 11 9 7 6 6 4 2 1 2
17 18 20 21 22 21 20 21 22 21 20 16 14 17 18 17 18 19 20 21 22 21 21 21 23 25 26 26 26 25 24 23 23 23 22 22 21 21 21 21 21 20 21 23 26 28 28 27 24 24 24 21 22 25 26 27 31 32 30 29 31 33 30 28 28 26 27 31 29 23 20 23 22 18 15 13 11 9 7 6 6 5 3 2 2
16 17 19 21 23 21 21 22 21 18 16 14 13 15 16 16 17 19 20 22 23 23 22 22 22 24 25 25 24 24 24 24 23 22 22 22 22 21 21 21 20 19 18 17 18 20 22 26 27 26 25 23 21 23 25 26 29 32 32 31 31 32 32 31 31 29 29 32 33 24 17 21 24 20 17 14 12 10 8 8 7 6 4 3 3
15 17 18 21 22 22 21 21 17 13 13 13 12 13 14 14 17 19 20 22 24 25 25 24 23 24 24 23 23 23 24 23 22 21 22 22 22 22 22 23 22 19 18 16 12 11 12 18 23 25 28 27 23 22 23 25 27 29 31 32 32 31 30 26 24 25 27 32 35 25 15 21 27 23 19 17 13 12 11 9 8 7 6 5 4
15 17 18 20 22 22 21 18 13 10 12 12 11 12 13 13 16 18 19 22 25 26 27 26 25 25 24 21 21 22 23 22 21 21 23 22 21 21 21 23 24 21 19 17 12 8 6 7 11 16 22 25 26 24 22 22 25 25 24 25 27 28 25 19 17 22 27 31 35 27 17 20 28 25 21 19 16 14 13 11 10 9 7 6 4
16 17 18 20 22 24 22 15 10 10 11 10 11 12 12 13 15 16 17 21 25 26 28 27 26 26 25 21 19 20 22 23 22 22 23 23 22 21 21 21 23 23 21 19 16 12 8 6 6 8 11 14 19 21 19 18 21 22 20 20 25 28 23 15 12 18 26 30 33 29 20 21 27 26 22 20 19 16 14 12 12 10 9 7 5
18 17 19 20 21 25 23 14 9 9 10 10 11 12 13 13 14 15 16 19 23 26 28 29 28 27 26 23 20 20 21 23 23 22 22 23 23 23 22 21 21 23 23 22 19 17 14 11 9 8 7 7 11 14 14 13 16 21 23 23 25 28 23 15 12 16 20 27 35 32 22 20 26 27 22 19 16 16 16 15 13 12 11 8 6
20 19 20 21 22 25 23 14 9 9 9 10 12 12 13 13 13 15 17 18 21 24 27 29 29 29 28 26 23 21 21 24 24 23 22 21 23 24 24 22 20 21 24 25 23 21 20 17 15 13 12 10 8 8 9 9 11 17 24 25 26 29 26 19 18 16 10 17 33 34 22 20 26 27 24 17 8 10 16 17 15 14 12 10 8
Wind_Direction
50 44 30 32 20 2 360 338 327 312 292 288 292 289 274 275 281 279 284 289 290 296 301 299 295 295 291 285 279 291 326 326 305 283 233 232 225 218 216 212 211 210 205 200 197 195 191 192 195 194 193 194 198 198 195 196 200 202 206 207 204 203 203 199 193 193 198 200 203 204 204 206 208 210 210 215 222 230 230 226 231 236 245 250 250
56 65 56 52 40 25 25 7 351 328 295 306 314 303 294 289 290 295 299 302 302 298 298 294 293 299 288 277 277 283 307 321 293 263 232 233 229 221 217 214 214 214 209 203 202 200 196 197 198 199 198 197 199 202 202 202 204 205 212 216 214 213 212 208 198 199 205 204 205 209 208 211 212 213 213 216 225 240 243 233 233 235 244 251 252
46 62 64 62 60 54 56 35 10 343 275 303 315 311 306 302 304 315 314 309 309 301 293 289 289 292 287 283 279 277 297 306 260 230 231 234 231 226 222 219 216 215 212 208 208 205 202 202 202 203 202 201 202 203 205 206 206 208 214 219 220 219 217 215 208 206 211 207 207 208 209 213 213 214 214 217 225 237 246 246 245 238 241 252 258
39 48 58 53 54 59 66 61 31 32 108 278 288 289 291 301 306 309 309 304 301 298 295 294 295 292 294 293 278 266 292 291 261 237 237 235 232 230 228 225 220 216 214 213 213 210 209 209 206 206 207 206 207 206 207 209 209 210 215 222 222 222 221 218 214 211 214 213 211 210 210 213 215 216 214 215 222 229 235 241 245 241 240 249 259
35 48 59 44 40 46 48 56 54 59 81 306 278 266 275 299 303 301 302 300 296 296 297 294 297 297 295 290 281 283 294 282 271 260 251 241 237 234 231 229 227 222 217 216 216 213 212 213 209 209 210 210 211 210 209 211 212 211 217 224 223 222 223 222 218 213 214 216 216 216 214 213 216 219 217 216 219 223 227 231 234 235 237 244 253
17 36 55 38 36 39 34 27 21 36 51 343 324 275 272 294 297 298 294 293 295 300 304 297 300 301 298 297 290 289 295 290 281 267 257 247 240 239 237 233 230 227 223 219 219 218 215 215 213 212 212 213 215 215 214 213 214 213 216 225 227 225 227 226 220 214 213 216 218 220 220 218 218 220 221 219 220 223 227 231 234 237 239 244 250
0 6 360 7 21 41 33 359 343 349 336 331 334 311 314 315 307 307 293 291 300 303 305 300 307 309 303 306 303 294 295 294 283 265 259 250 240 239 239 237 232 228 226 222 221 222 220 218 217 216 216 216 217 218 218 217 217 216 216 223 229 230 231 229 223 217 217 219 220 223 224 224 223 222 224 225 226 226 229 233 236 239 242 245 249
356 5 6 6 10 6 26 1 330 314 318 317 321 319 331 331 333 336 315 305 310 310 308 302 308 317 313 310 310 302 289 282 277 266 256 246 238 237 236 237 233 228 229 228 226 225 223 222 220 219 218 218 219 220 221 220 220 220 218 222 227 228 229 228 225 222 222 223 223 225 228 229 229 229 228 229 231 231 232 233 234 236 238 241 243
342 358 6 1 356 350 352 10 7 284 308 304 310 312 301 294 320 344 333 319 317 315 316 313 310 313 316 313 309 305 292 281 278 271 260 245 238 241 240 236 232 229 232 234 233 230 226 224 223 222 221 220 221 222 223 223 222 223 222 222 223 224 225 225 224 223 223 225 227 229 231 233 235 236 235 235 235 236 236 235 235 233 232 233 232
345 346 352 347 348 352 349 357 355 335 332 324 317 313 299 286 302 320 320 314 312 311 312 311 311 309 310 310 306 301 296 289 282 273 263 252 245 246 245 240 239 239 237 237 237 233 230 227 226 226 226 226 225 224 225 226 225 225 224 222 221 223 226 227 225 224 224 226 229 230 232 233 235 237 238 238 238 239 240 239 238 234 230 228 225
359 352 346 342 343 347 348 349 343 336 334 326 324 325 316 309 314 318 322 322 322 320 314 308 307 304 301 304 304 299 294 287 281 276 265 260 257 253 249 245 246 246 240 239 240 240 240 236 231 230 230 231 230 229 228 228 229 229 228 225 223 223 226 228 228 227 228 230 231 231 231 232 233 235 236 237 238 238 240 240 239 236 231 229 230
353 349 342 341 336 334 336 338 330 326 327 326 327 331 332 330 331 335 331 330 331 328 329 325 309 296 299 306 309 304 297 286 275 271 267 264 261 258 254 245 243 242 240 241 242 246 249 248 244 238 236 237 236 235 233 231 231 231 231 230 228 227 227 229 232 232 231 234 235 235 234 234 234 235 235 235 236 236 237 237 237 236 232 231 234
357 350 343 342 341 335 330 334 333 326 326 327 326 328 331 330 327 327 327 326 324 323 332 332 311 295 307 316 320 315 304 299 282 268 265 264 262 261 256 246 244 244 243 246 249 249 249 250 249 241 237 239 238 237 237 236 235 233 233 233 231 231 231 232 234 236 235 236 238 239 238 235 233 234 234 234 234 235 234 235 235 234 234 234 235
10 4 357 349 349 347 338 339 340 333 332 333 331 328 327 327 324 321 321 319 318 318 324 331 314 296 314 320 327 331 324 327 308 280 275 265 261 261 255 249 249 249 248 251 251 248 246 245 245 240 236 237 238 237 238 239 239 238 236 235 235 236 237 236 235 238 239 238 240 240 237 234 232 232 233 232 232 233 233 234 236 235 235 236 235
18 17 13 3 356 352 350 349 346 343 338 335 334 332 329 328 327 323 317 310 311 318 321 330 322 308 322 319 324 338 330 339 335 319 318 284 256 250 253 256 258 259 257 254 249 244 243 242 242 243 242 242 243 241 240 240 241 241 240 238 237 239 242 243 240 240 239 240 241 239 236 236 236 234 233 233 233 233 234 234 235 235 235 236 235
24 24 22 18 14 7 3 359 356 354 348 343 338 335 334 333 333 333 327 313 310 314 312 316 320 312 318 297 314 354 305 324 328 317 330 336 269 243 249 259 262 264 260 254 248 244 241 241 242 245 246 247 248 246 243 243 244 244 243 241 239 239 244 246 245 243 242 241 242 242 240 240 240 238 237 237 236 236 236 235 233 232 232 234 235
27 27 26 25 24 19 15 9 5 2 358 356 349 341 338 338 341 340 338 333 324 318 308 304 306 302 287 267 301 344 259 286 330 311 320 339 310 246 252 260 261 263 260 255 249 244 243 240 239 242 245 248 248 247 245 245 246 246 245 244 241 239 241 244 244 245 244 241 240 245 248 246 244 242 240 239 240 240 239 239 236 232 231 233 234
27 28 26 24 23 21 18 14 11 8 6 3 358 352 345 341 340 334 334 338 335 329 318 308 300 294 292 274 264 266 274 299 333 312 318 328 328 259 256 260 261 260 256 254 250 247 246 242 240 243 246 247 244 242 243 244 245 246 246 244 242 238 238 241 242 243 244 240 238 243 249 250 248 246 243 239 241 243 242 241 238 235 234 234 234
27 26 23 21 21 19 15 13 11 9 8 6 3 1 356 349 343 335 331 332 337 336 323 316 308 293 291 287 280 279 285 288 262 263 318 319 315 308 286 270 266 258 250 249 248 249 250 247 244 245 246 243 240 239 241 243 244 245 246 245 243 242 240 240 242 243 244 242 240 242 245 245 245 245 245 242 242 245 245 242 240 238 238 237 235
26 24 24 22 20 17 14 13 11 10 10 8 5 1 357 354 350 346 341 333 337 336 323 319 311 297 295 294 291 289 290 290 274 259 250 295 304 303 301 290 265 254 251 249 248 249 251 249 243 243 243 240 238 237 238 240 243 247 249 246 243 244 242 239 241 245 248 247 244 243 243 242 241 243 245 244 242 244 243 240 239 239 239 239 235
23 22 24 22 18 15 13 12 9 8 8 6 4 1 357 355 352 350 346 338 334 328 319 318 314 312 319 317 310 303 297 298 288 265 237 233 275 286 293 290 257 251 248 245 245 244 244 245 244 244 241 236 234 233 235 239 242 247 248 245 243 245 244 239 239 245 250 252 246 242 243 242 239 239 241 240 239 241 240 237 237 238 239 240 236
17 18 20 18 15 12 10 9 7 6 4 2 0 358 357 356 353 350 346 342 336 328 320 314 315 326 331 323 318 314 305 301 290 268 251 242 241 266 282 271 246 251 247 240 239 234 232 236 240 242 238 236 238 236 235 238 238 240 239 236 237 241 243 240 239 241 244 245 241 238 240 242 241 237 234 233 235 239 239 236 237 239 241 243 238
14 11 9 9 9 8 8 9 8 6 2 360 357 353 350 351 353 350 346 345 341 334 328 320 320 327 322 306 300 299 295 291 285 279 269 250 247 274 286 277 259 257 255 244 235 228 225 227 231 235 238 240 241 238 236 234 233 234 231 226 226 228 233 235 234 235 236 235 231 227 230 234 236 230 224 222 225 230 233 232 234 237 243 248 243
5 359 357 359 358 358 2 1 1 2 358 357 357 353 347 342 346 349 346 343 341 335 331 328 327 326 314 298 294 289 281 283 287 285 276 265 259 257 284 290 277 262 261 247 234 227 221 223 226 229 235 239 237 235 234 231 229 228 222 217 216 214 213 221 229 229 224 218 211 203 199 208 219 215 205 207 214 215 214 218 224 233 244 248 241
357 353 352 356 354 351 353 351 351 358 358 357 359 358 352 342 338 344 347 343 338 333 329 328 329 327 317 305 303 298 288 286 286 284 283 280 269 251 274 287 276 262 263 243 233 231 226 225 225 223 230 235 233 233 232 228 225 222 217 214 212 212 210 210 217 206 176 161 160 156 149 154 173 177 158 157 182 186 178 200 219 228 240 229 215
356 357 359 5 5 3 4 0 358 1 1 359 359 359 358 350 339 339 346 347 340 334 329 328 328 327 324 315 307 300 292 288 283 282 287 288 280 269 273 284 279 268 260 237 228 226 227 228 224 220 225 231 231 232 232 227 221 220 221 216 213 214 211 200 192 185 165 148 145 141 137 134 129 129 136 140 151 162 163 175 195 203 215 218 211
358 0 6 12 10 7 8 4 360 358 359 360 359 357 355 353 348 343 346 350 345 340 334 328 325 323 321 317 311 305 297 295 294 292 292 289 285 282 275 272 281 286 272 241 225 221 227 228 224 222 224 228 230 231 232 228 221 220 220 212 206 203 196 188 185 188 201 208 205 200 189 167 139 136 154 161 162 170 167 164 177 193 206 215 218
0 3 8 11 7 3 0 358 355 353 354 357 356 353 352 352 352 348 346 349 348 344 337 327 322 319 318 316 313 309 307 305 302 298 295 290 287 285 280 263 251 276 296 265 238 230 231 227 221 222 224 227 229 229 230 227 219 216 211 201 194 191 190 191 196 201 202 191 184 187 190 191 184 180 188 190 193 197 198 204 209 211 218 223 225
358 360 4 5 3 0 358 357 359 357 356 356 353 350 350 352 353 349 347 348 346 343 338 330 324 320 318 317 314 311 310 309 303 299 297 293 287 282 279 272 257 245 259 266 258 239 232 225 219 219 221 224 226 226 225 225 220 212 203 197 192 192 197 203 205 205 201 191 182 183 191 199 204 209 214 215 219 222 225 234 240 242 242 243 242
357 357 360 2 2 2 4 5 5 4 1 357 352 349 348 349 349 348 348 348 343 338 336 331 325 321 318 318 317 314 312 310 305 301 296 293 289 282 277 274 267 252 239 242 256 255 237 224 220 218 217 219 220 221 221 222 220 211 203 200 198 198 201 203 206 207 208 209 196 185 193 204 217 232 240 239 240 244 245 249 254 258 259 260 259
6 4 6 9 8 6 6 5 2 2 1 357 353 350 350 351 351 350 349 347 342 335 333 331 327 323 320 319 319 319 318 314 308 301 295 290 286 282 276 272 268 262 253 239 240 260 248 228 223 221 218 217 215 214 215 215 214 209 204 203 201 199 199 199 205 207 203 208 224 232 226 226 240 251 255 254 254 255 255 255 258 260 263 264 264
9 9 12 15 11 4 0 357 356 357 358 356 355 354 355 355 354 351 347 344 340 334 331 331 331 330 326 323 320 320 322 318 311 303 297 292 286 281 278 272 268 270 268 252 227 250 252 246 234 224 218 216 212 210 208 205 204 204 205 205 202 198 197 200 202 200 198 209 234 244 240 245 265 273 270 264 260 257 256 259 263 263 261 261 261
14 16 16 13 9 3 360 359 359 357 355 355 356 354 351 350 349 346 344 341 337 334 332 330 331 333 330 325 321 320 321 317 313 308 301 296 291 282 278 276 267 262 265 258 242 243 251 253 248 228 218 214 210 207 204 199 197 199 202 205 205 200 197 200 200 199 206 216 218 218 233 263 279 283 279 271 265 260 257 261 264 260 256 255 256
24 21 17 12 8 5 3 2 359 355 354 354 351 344 345 348 347 344 341 340 338 336 335 334 333 333 330 325 321 320 320 316 312 310 305 299 294 285 277 276 268 254 252 254 249 241 242 248 248 230 214 209 207 204 202 199 194 194 199 202 202 202 201 203 204 203 208 210 211 219 240 267 278 277 274 269 262 253 250 251 248 245 246 244 242
23 19 14 11 7 4 2 358 354 352 352 354 348 339 341 346 345 343 341 340 340 340 340 339 338 335 331 325 321 320 320 316 311 309 308 302 296 290 280 273 268 258 250 251 251 245 237 237 237 223 206 203 204 202 202 202 195 191 196 198 199 201 202 205 207 204 203 202 205 223 243 260 272 271 264 255 245 232 226 230 227 224 222 218 218
15 13 9 7 4 1 358 354 351 350 351 352 347 337 335 339 341 340 340 340 340 340 340 340 339 337 332 325 322 322 320 315 310 307 307 304 297 292 285 274 266 261 256 252 252 253 247 231 222 220 209 201 202 202 200 200 197 194 196 197 198 201 202 204 205 202 197 195 202 216 222 221 225 228 226 222 217 206 192 192 193 192 190 188 191
11 9 6 4 1 359 356 353 348 347 348 350 349 341 332 331 335 337 335 336 337 337 336 336 336 335 333 328 324 324 322 315 311 307 306 304 300 293 287 279 268 260 256 252 250 255 258 239 218 214 210 202 200 200 198 196 192 191 196 199 199 201 200 199 199 197 191 187 194 195 178 165 168 178 185 187 187 187 180 177 172 163 157 156 157
9 8 6 2 359 357 353 351 349 347 348 351 352 348 337 328 328 332 331 330 331 332 332 332 333 332 331 329 327 326 324 318 312 309 306 303 301 295 290 285 277 266 256 251 251 251 257 255 232 209 202 202 197 195 197 196 189 184 187 192 196 199 199 194 191 190 188 186 187 180 167 165 166 167 169 168 170 187 199 193 180 162 145 135 128
7 5 2 358 357 355 352 352 352 350 350 352 352 351 345 333 326 326 327 326 326 327 328 329 330 330 328 327 326 325 325 322 316 310 305 301 299 297 292 288 283 274 260 252 252 249 247 255 243 213 199 201 199 193 195 195 189 185 183 179 182 191 195 193 188 184 182 182 178 169 163 162 159 156 156 155 153 146 157 187 187 165 143 129 119
5 360 356 354 353 352 351 354 356 354 351 351 350 349 346 337 330 327 326 325 325 325 327 328 328 328 327 326 325 324 323 321 317 312 304 298 296 296 294 289 284 278 266 253 248 247 241 246 245 220 198 198 200 193 189 185 179 182 186 182 179 184 189 191 189 185 182 179 172 165 164 164 158 155 154 148 137 109 82 73 125 154 144 130 118
3 357 352 351 350 349 350 353 356 354 350 347 346 346 343 337 334 332 328 327 328 328 330 330 328 327 327 327 326 326 323 319 318 318 311 302 297 296 293 289 282 277 270 256 245 242 238 237 241 224 196 191 195 187 181 181 181 184 189 186 181 182 184 184 186 186 184 180 172 168 169 169 163 159 159 151 134 116 97 73 70 108 126 122 116
357 354 353 353 352 349 348 347 348 349 347 344 342 343 342 338 335 334 332 332 334 335 334 332 330 330 330 329 328 328 326 321 321 323 319 310 303 299 294 289 280 273 269 261 247 240 233 227 227 218 195 186 190 186 183 187 188 186 185 184 177 173 173 172 178 187 188 182 175 171 172 171 168 163 160 154 140 131 128 109 87 82 94 109 123
351 347 349 352 353 350 346 342 341 342 343 341 339 342 343 340 337 336 336 337 338 339 338 337 335 334 333 330 328 326 326 325 323 322 320 315 307 301 298 293 284 275 269 263 253 240 230 223 216 206 196 189 188 190 190 188 187 185 185 184 174 166 166 166 170 188 194 189 181 174 173 174 173 169 163 156 147 142 146 143 132 118 92 104 142
351 345 343 343 345 345 342 339 337 338 339 338 337 343 343 341 339 337 336 337 339 340 341 339 337 336 334 331 326 322 323 326 325 321 321 317 307 299 297 295 290 283 275 267 258 243 228 218 208 198 198 196 187 190 194 189 184 184 185 183 177 172 174 176 178 186 194 193 187 177 175 177 178 178 174 165 154 149 154 158 154 150 140 126 155
349 346 342 338 338 337 335 335 335 336 337 334 334 342 343 340 339 337 334 336 340 341 341 339 338 337 337 334 330 327 328 330 330 327 325 322 310 297 291 291 290 287 283 277 267 252 232 217 208 198 196 197 191 191 196 192 184 180 178 180 182 180 180 185 191 191 190 191 188 179 176 181 182 185 187 178 162 157 162 164 159 158 157 145 150
346 344 341 338 337 335 330 330 334 338 337 331 331 339 342 339 337 334 333 335 339 339 339 339 338 337 337 337 335 334 335 336 336 335 331 327 319 304 288 284 286 283 283 285 280 263 236 219 213 207 200 198 195 195 199 198 190 182 179 180 183 185 190 197 201 198 193 193 191 182 175 184 186 188 195 187 168 165 169 162 159 163 161 157 165
342 338 335 334 334 334 330 327 330 338 338 330 329 334 336 336 335 333 332 335 337 337 337 338 338 337 337 339 338 336 334 334 336 338 335 329 326 316 295 279 278 279 278 282 287 280 249 227 223 218 210 204 200 198 201 203 199 193 190 191 192 192 195 197 197 194 193 195 193 185 175 185 188 190 197 192 175 171 174 163 160 168 165 165 182
335 331 328 327 326 328 329 324 320 328 337 334 329 330 330 329 330 330 331 335 337 336 336 336 337 337 337 338 337 334 331 331 333 336 334 330 327 323 306 284 272 270 272 275 276 276 259 227 215 207 199 195 194 196 201 206 207 204 200 196 189 184 181 178 177 184 189 192 193 190 179 180 187 191 194 190 181 177 178 169 162 164 164 166 186
323 323 322 321 320 321 323 317 307 317 335 339 332 326 323 322 322 324 329 334 336 335 333 333 335 337 338 337 333 329 329 333 333 330 329 330 329 326 317 298 277 265 263 266 267 263 253 228 199 188 181 178 181 188 197 207 209 209 204 190 178 174 174 170 166 179 187 189 192 196 189 179 185 190 187 183 184 182 178 172 167 162 159 165 187
311 314 317 317 316 318 317 307 294 312 332 341 335 323 316 315 315 319 327 332 334 333 331 331 332 335 338 337 331 326 326 329 330 327 325 329 331 327 321 309 287 267 259 257 255 255 250 241 233 230 222 198 178 175 185 202 209 208 206 196 184 180 183 184 173 174 184 189 191 196 192 177 181 186 177 171 181 186 180 174 171 167 159 159 179
302 305 311 312 311 314 314 298 282 307 328 337 333 318 308 309 310 315 324 329 331 331 329 327 328 331 335 337 333 328 324 321 323 326 325 326 327 323 318 311 294 276 266 256 247 245 244 241 243 249 253 248 225 191 187 205 219 216 212 207 197 190 190 190 175 161 168 193 195 196 189 170 174 180 174 162 166 195 191 181 174 174 168 163 172
Height
821 821 821 821 821 821 821 822 822 823 823 823 823 823 824 823 823 823 824 824 823 823 823 823 823 822 822 822 822 822 821 821 820 820 820 821 821 822 822 823 823 824 824 825 825 826 826 827 828 829 830 831 832 832 833 834 834 835 836 836 837 837 838 839 839 840 840 841 841 841 841 841 842 842 842 843 843 843 844 844 844 844 844 844 844
820 820 820 820 820 820 821 822 822 822 823 823 823 823 824 823 823 823 823 823 823 822 822 822 822 821 821 821 821 821 821 821 819 819 819 820 820 821 821 822 822 823 824 824 825 825 826 827 827 828 829 830 831 831 832 833 834 834 835 835 836 836 837 838 838 839 839 839 840 840 840 840 840 841 841 841 842 842 843 843 843 843 843 843 843
821 821 820 820 820 820 821 821 822 822 822 823 823 824 824 823 823 823 822 822 822 821 821 821 821 821 820 820 820 819 820 820 819 819 819 819 819 820 820 821 821 821 822 823 824 824 825 826 826 827 828 828 829 830 831 832 833 833 834 834 835 835 836 836 837 837 838 838 838 838 839 839 839 839 839 840 840 841 841 841 842 842 842 842 842
822 822 821 821 821 821 821 821 821 821 822 822 823 823 823 823 823 822 822 821 821 821 821 820 820 820 819 819 818 818 819 819 819 819 818 818 818 819 819 819 820 820 821 822 823 824 824 825 825 826 827 827 828 829 829 830 831 832 833 833 834 834 835 835 836 836 836 837 837 837 837 837 837 837 838 838 839 839 839 840 840 840 840 840 840
824 823 823 822 822 822 822 821 821 821 821 822 822 822 822 823 823 822 822 821 821 820 820 819 819 819 818 817 816 817 818 817 818 818 818 818 817 818 818 818 818 819 820 820 821 822 823 824 824 825 825 826 827 827 828 828 829 830 831 832 832 833 833 834 834 835 835 835 835 835 836 836 836 836 836 837 837 837 838 838 838 838 839 839 839
825 825 824 824 823 823 823 822 822 822 822 822 821 821 821 821 822 821 821 821 821 820 819 819 818 818 817 816 815 815 816 816 816 816 816 816 816 817 817 817 817 817 818 818 819 820 821 822 823 824 824 825 825 826 826 827 827 829 829 830 831 832 832 833 833 833 833 833 834 834 835 835 835 835 835 835 836 836 836 836 837 837 837 837 837
827 826 826 825 825 824 824 823 823 823 823 822 822 821 821 821 820 820 820 820 820 819 819 818 818 817 816 815 815 814 813 814 815 814 814 814 815 815 815 815 815 816 816 817 817 818 819 820 821 822 822 823 824 824 825 825 826 827 828 828 829 830 830 831 831 831 831 832 832 833 833 834 834 834 834 835 835 835 835 835 835 835 835 835 835
827 827 827 826 826 825 824 824 823 823 823 823 822 822 821 820 820 819 818 818 818 817 817 817 816 816 815 814 814 814 813 813 813 812 813 812 813 813 814 814 813 814 815 815 815 816 816 817 818 819 820 821 821 822 823 823 824 825 826 826 827 827 828 828 829 829 830 830 831 831 832 832 833 833 834 834 834 834 834 834 833 833 833 834 834
827 827 827 827 826 826 825 825 824 824 824 823 823 823 822 821 820 819 818 817 817 816 815 815 814 814 813 813 813 813 812 812 811 811 811 811 812 812 812 812 812 812 813 813 813 813 814 814 816 817 818 818 819 820 820 821 822 823 824 824 825 825 826 826 826 827 828 828 828 829 830 831 831 832 832 832 832 832 832 832 832 832 832 832 832
828 828 827 827 827 826 826 826 825 825 824 824 823 823 822 821 821 820 819 817 816 816 815 814 813 812 811 811 811 811 810 810 810 810 810 810 810 811 810 810 810 810 811 811 812 812 812 813 814 815 816 816 817 817 818 819 820 821 821 822 823 823 823 823 824 825 825 826 826 827 828 829 829 830 830 830 830 830 831 831 831 831 831 831 830
829 828 828 828 827 827 826 826 825 825 825 824 824 823 822 821 820 820 819 818 817 816 815 814 812 811 811 810 809 809 808 808 808 808 808 808 809 809 809 809 809 809 809 809 810 811 811 812 813 814 814 815 815 816 817 817 818 818 819 819 820 821 821 821 822 822 823 823 824 825 826 826 827 827 828 828 828 828 829 829 829 829 830 830 830
829 829 828 828 828 827 826 826 825 824 824 824 823 823 822 821 820 819 818 817 816 815 814 813 812 811 810 809 808 807 806 806 806 806 806 806 807 808 808 808 808 808 808 808 809 810 810 812 815 815 814 814 814 815 815 815 815 816 816 817 818 818 818 819 819 820 820 821 822 822 823 824 824 825 825 826 826 827 827 827 827 828 828 828 828
829 829 828 828 828 827 827 826 825 825 824 823 823 822 821 821 819 818 817 816 815 814 814 812 811 810 808 807 806 805 805 804 804 803 804 804 805 806 806 806 806 806 806 807 807 808 809 811 812 812 812 812 812 812 812 813 813 814 814 814 815 816 816 816 817 817 818 819 819 820 821 821 822 822 823 824 824 825 825 825 825 826 826 826 826
830 829 828 828 827 827 827 826 826 825 824 824 823 822 822 821 819 818 817 815 814 813 813 812 811 809 808 806 804 803 802 802 802 802 802 802 803 803 804 803 804 805 805 805 805 807 807 808 808 808 809 809 809 809 810 810 811 811 811 812 813 813 813 814 814 815 816 817 818 819 819 819 819 820 821 821 822 822 822 823 823 824 824 824 824
831 830 829 828 828 827 827 826 826 825 824 824 823 822 822 821 820 819 817 816 814 813 813 812 811 810 809 808 806 804 802 801 800 800 800 800 800 801 801 801 802 803 803 803 804 805 805 805 805 805 806 807 807 807 807 807 808 808 808 809 810 811 811 812 813 813 814 815 816 817 817 817 817 818 818 819 820 820 820 821 821 822 822 822 823
832 831 830 829 829 828 827 826 826 825 824 823 822 822 821 820 820 819 817 816 815 814 813 812 811 810 810 809 808 807 806 803 800 799 798 798 798 799 799 799 800 801 801 801 801 802 803 803 802 803 804 804 805 805 805 805 805 805 805 806 807 809 810 809 810 810 811 812 814 815 816 816 816 816 816 817 818 818 818 819 819 820 820 820 821
833 832 831 831 830 829 828 827 826 825 824 823 822 821 820 820 819 818 817 816 815 814 812 812 811 810 810 810 809 809 807 804 801 798 797 797 797 797 797 797 798 799 799 798 799 800 800 800 800 800 801 802 802 802 803 803 803 802 803 803 806 808 807 806 807 807 808 809 812 814 814 815 815 815 815 815 816 815 816 816 817 818 818 818 819
834 833 832 831 831 830 829 827 826 825 824 823 822 821 820 819 818 817 816 816 815 813 812 811 811 810 809 809 808 808 806 804 803 800 797 796 796 796 796 796 796 796 796 796 797 797 798 798 798 798 799 799 800 800 800 800 800 800 801 802 803 804 804 804 804 805 805 807 810 811 812 813 813 813 813 813 813 813 814 814 815 815 816 816 817
834 834 833 832 831 830 829 828 827 825 824 823 821 820 819 818 817 816 815 815 814 813 812 811 810 809 808 808 807 806 805 804 804 803 800 797 795 796 796 795 795 795 794 795 795 795 796 796 796 796 797 797 797 798 798 798 798 798 799 799 800 801 802 802 802 802 803 805 807 808 809 809 810 810 810 810 810 811 811 812 812 813 814 814 815
835 834 833 832 831 830 829 828 827 825 824 823 822 820 819 818 817 816 815 814 813 812 811 810 809 808 807 807 807 806 805 804 803 802 802 801 797 795 794 794 794 794 793 793 793 794 794 794 794 794 795 795 795 796 796 796 796 796 797 797 798 798 799 800 800 801 802 802 804 805 806 806 807 808 808 808 808 808 808 809 810 810 811 811 812
836 835 833 832 831 830 829 828 826 825 824 823 822 821 819 818 817 815 814 813 812 812 810 809 809 808 809 809 808 807 805 804 803 801 801 801 799 796 794 794 794 792 792 792 792 792 793 792 792 793 793 793 793 794 794 794 795 795 795 796 796 796 797 798 799 800 800 801 802 804 804 805 805 805 805 805 805 805 805 806 807 807 808 809 810
836 835 834 832 831 830 828 827 826 825 824 823 821 820 819 818 816 815 814 813 811 810 809 809 808 808 810 810 810 810 808 805 803 801 800 800 799 796 794 794 793 791 790 790 790 791 791 791 791 791 791 792 792 792 793 793 793 794 794 795 795 795 796 797 798 798 799 799 800 802 803 804 803 802 802 803 803 803 804 805 805 806 806 807 807
837 835 834 833 831 830 828 827 826 825 824 822 821 820 818 817 816 815 814 812 811 809 808 808 807 807 808 808 808 809 811 808 804 802 800 799 798 796 794 793 792 790 788 788 788 789 790 790 790 790 790 790 790 791 791 792 792 793 793 794 794 794 795 795 796 796 797 798 799 800 801 802 802 801 800 801 802 802 802 803 804 805 805 806 806
837 835 834 833 831 830 828 827 826 824 823 822 821 819 817 816 815 814 813 811 810 808 807 806 806 806 807 807 805 806 809 809 806 803 800 798 797 796 794 792 791 789 787 787 787 788 788 788 788 789 789 789 789 789 790 791 791 792 793 793 793 793 794 795 795 795 796 797 799 799 799 800 800 799 799 800 800 801 801 802 802 803 804 805 805
836 835 834 832 830 829 828 826 825 824 823 822 820 818 817 815 814 813 812 810 809 808 806 805 805 805 806 806 803 802 804 805 806 805 801 798 796 795 794 792 790 788 786 786 786 786 787 787 787 788 787 787 787 788 789 789 790 791 792 792 792 793 794 795 795 795 795 796 797 797 798 799 799 798 798 799 799 800 801 801 800 802 803 804 804
837 835 834 832 830 829 827 826 825 824 823 821 820 818 816 814 813 812 811 809 808 807 806 804 803 803 803 803 802 801 802 802 804 803 800 797 795 795 794 792 790 788 786 785 785 785 785 785 786 786 786 785 786 787 788 788 789 790 791 791 791 792 793 794 795 795 795 796 797 797 797 798 798 797 798 799 799 800 800 800 800 801 802 803 804
837 835 834 832 830 829 827 826 825 823 822 820 819 817 816 814 812 811 810 808 807 805 804 803 802 801 800 800 800 800 800 799 799 797 795 794 793 793 793 793 791 789 786 785 784 783 782 783 784 784 785 784 785 786 787 787 788 789 790 791 791 791 792 793 794 794 795 796 796 796 797 798 797 797 798 798 799 800 800 800 800 800 802 803 804
837 835 834 832 830 829 827 826 824 823 821 820 818 816 815 813 811 810 809 807 806 804 803 801 800 799 798 797 797 796 795 795 793 792 792 791 791 791 791 792 792 790 788 785 783 782 781 782 782 783 783 783 784 785 786 787 788 788 789 790 791 791 792 793 794 794 794 795 795 796 797 797 796 797 797 798 799 799 800 800 800 800 801 802 803
838 836 834 832 830 828 827 825 824 822 821 819 818 816 814 813 811 810 808 806 804 803 801 800 798 797 796 795 794 793 792 791 790 789 788 788 788 788 788 789 790 790 788 786 783 780 779 780 780 780 781 782 783 784 785 786 787 788 788 789 790 791 792 793 793 794 794 794 795 795 796 796 796 796 797 797 798 799 799 799 799 800 800 801 802
838 836 834 832 830 828 826 825 823 822 820 819 817 815 814 812 811 809 807 805 803 802 800 798 797 795 794 793 792 791 789 788 787 786 786 786 785 785 785 785 787 787 786 785 783 778 777 777 777 778 779 779 781 783 784 785 786 787 787 788 789 790 791 792 793 793 794 794 795 795 795 795 796 796 796 797 797 798 798 798 799 799 800 800 800
838 836 834 832 830 829 826 825 823 822 820 818 817 815 813 812 810 809 807 805 803 801 799 797 795 794 792 791 790 789 788 787 786 785 784 783 783 782 782 782 783 783 783 783 781 778 776 775 774 775 776 777 779 781 782 784 785 786 787 787 788 789 790 791 792 793 793 794 794 795 795 795 795 795 796 796 796 796 796 797 797 798 798 799 799
837 835 834 832 830 829 827 825 823 821 820 818 816 814 813 812 810 808 806 804 802 800 798 796 795 793 791 790 788 787 786 785 784 783 782 781 781 780 779 778 779 780 782 782 779 776 775 774 772 773 774 775 776 778 780 782 784 786 786 787 788 788 789 789 790 792 792 793 794 794 795 795 795 795 795 795 795 795 795 795 795 796 796 797 797
837 835 833 832 830 828 826 825 823 821 819 817 815 814 812 811 809 807 805 803 801 799 797 795 793 792 790 789 787 786 784 783 782 781 780 780 779 777 776 775 775 776 779 780 777 774 773 773 772 771 772 773 774 775 778 779 781 784 785 787 787 787 788 789 789 791 791 792 793 794 794 794 794 794 794 794 793 793 793 794 794 794 795 795 795
836 834 833 831 830 828 826 824 823 821 819 817 815 813 811 810 808 806 804 802 800 798 796 794 792 791 789 787 785 784 783 782 780 779 778 778 777 776 774 773 772 772 774 777 775 772 770 771 770 769 770 771 772 773 775 776 779 781 783 785 786 787 788 788 789 790 790 791 792 793 793 793 793 793 793 792 792 792 793 793 793 794 794 794 794
835 834 832 831 829 827 825 824 822 820 818 816 814 812 811 809 807 805 803 801 799 797 795 793 792 790 788 786 784 782 781 780 778 777 776 775 775 774 772 771 770 768 769 772 772 769 768 768 768 767 767 769 770 771 772 775 777 779 781 783 784 786 787 788 788 789 789 790 791 792 792 792 792 792 792 792 792 792 792 793 793 793 793 793 793
834 833 831 830 828 826 825 823 821 819 817 815 813 812 810 808 806 804 802 801 799 797 795 793 791 789 787 785 782 781 779 778 776 775 774 773 772 771 770 768 767 766 765 767 769 768 765 765 766 765 765 765 768 769 771 773 776 778 779 781 783 785 786 787 788 788 789 790 790 791 792 792 791 791 792 792 792 792 792 793 793 793 793 793 793
834 832 830 829 827 825 823 822 820 818 816 814 812 810 809 807 805 803 801 800 798 796 794 792 790 788 786 784 781 780 778 776 775 773 772 771 769 768 767 766 765 764 762 763 766 766 764 763 763 763 763 764 765 768 769 771 774 777 778 779 781 783 785 786 787 788 788 789 790 790 791 791 791 791 792 792 792 792 792 793 793 793 793 793 793
833 831 829 828 826 824 822 820 818 816 815 813 811 809 808 806 804 802 800 798 797 795 793 791 789 787 785 783 780 778 777 775 773 772 770 768 767 765 764 763 762 761 760 760 762 763 762 762 762 761 761 762 763 765 767 768 770 772 776 778 781 782 783 785 786 787 788 788 789 790 790 791 791 791 792 792 792 792 792 793 793 793 793 793 793
831 830 828 827 825 823 821 819 817 815 813 812 810 808 807 805 803 801 799 797 795 793 791 789 787 785 783 781 779 777 775 774 772 770 768 766 764 763 762 760 759 758 756 756 757 757 758 760 760 759 758 759 761 762 764 767 768 769 771 774 778 781 782 784 785 786 786 787 788 789 790 790 791 791 792 792 792 792 792 793 793 793 794 794 793
830 829 827 825 824 822 820 818 816 814 812 811 809 807 805 804 802 800 798 796 794 792 790 788 785 783 781 779 777 775 774 772 770 768 766 764 762 760 759 758 757 755 753 753 753 753 754 756 757 756 755 756 758 759 762 765 767 768 768 769 772 776 779 782 783 784 785 786 787 788 789 789 790 791 791 792 792 792 793 793 793 793 793 794 793
829 828 826 824 822 820 819 817 815 813 812 810 808 806 804 802 800 798 796 795 793 790 788 786 783 781 779 777 775 773 772 770 768 766 764 762 761 759 757 756 755 753 751 751 750 750 751 752 754 754 752 752 754 756 758 760 761 764 766 767 770 773 777 780 782 783 783 785 786 786 788 788 789 790 791 791 792 792 793 793 793 793 794 794 794
828 826 825 823 821 819 817 816 814 812 810 809 807 805 803 801 799 797 795 793 791 789 787 784 781 779 777 775 773 771 769 767 765 763 761 759 758 757 755 753 752 751 749 749 748 747 748 748 750 751 750 749 749 751 753 755 758 761 763 766 769 772 776 779 781 783 783 783 784 785 786 787 788 789 790 791 792 792 793 794 794 794 794 794 794
827 825 823 822 820 818 816 814 813 811 809 808 806 804 802 800 798 796 794 792 790 788 786 783 781 778 775 773 771 769 767 765 763 761 758 757 755 754 753 751 750 749 747 746 745 744 744 744 745 746 746 746 746 748 750 752 755 758 760 763 766 769 772 775 778 780 781 782 783 783 785 786 787 788 789 790 791 792 793 793 794 794 794 794 794
825 823 822 820 819 817 815 813 811 810 808 806 805 803 801 799 797 795 793 791 789 787 785 782 780 777 774 772 769 767 765 763 761 759 756 754 753 752 750 748 747 746 744 743 742 741 740 740 740 741 742 743 744 746 748 749 752 755 758 760 762 764 767 770 773 774 776 779 781 782 783 785 786 787 788 789 790 791 792 793 793 794 794 795 795
823 822 820 818 817 815 814 811 810 808 806 805 803 802 800 798 796 794 792 790 787 785 783 781 779 776 773 770 767 765 764 762 760 757 755 753 751 749 748 746 745 743 741 740 739 737 736 736 737 737 738 741 742 744 746 748 749 752 755 758 759 761 764 766 767 769 772 776 779 781 782 783 784 785 787 788 789 790 791 793 793 794 794 794 794
821 819 818 816 814 813 811 810 808 806 804 803 801 800 798 796 795 793 791 788 786 784 782 780 777 775 772 770 767 764 762 760 758 756 754 752 749 748 746 744 743 741 740 738 736 735 734 734 734 735 736 738 740 742 745 747 748 749 750 753 756 758 760 762 764 767 769 772 775 778 780 782 783 784 785 787 788 790 791 792 793 793 794 794 794
818 817 815 813 812 810 809 807 806 804 802 801 799 798 796 795 793 791 789 787 784 782 780 778 776 774 771 769 766 764 762 760 758 755 753 751 748 746 744 743 741 740 738 737 735 734 734 733 733 734 735 736 738 740 743 745 747 748 749 750 752 755 758 761 764 767 768 770 772 775 777 780 781 782 784 786 787 789 790 791 792 793 793 794 794
816 814 813 811 809 808 806 805 803 802 800 799 797 796 795 793 791 789 787 785 783 780 778 776 774 772 770 767 765 763 761 758 757 754 752 750 747 745 743 741 739 738 737 736 735 735 734 733 733 734 735 735 735 737 740 743 745 747 749 750 751 754 757 761 764 766 767 769 771 773 774 777 779 780 782 785 787 788 789 790 791 792 792 793 794
813 811 810 808 807 805 804 803 801 799 798 797 795 794 792 791 789 787 785 783 781 778 776 774 772 770 768 766 764 762 760 757 755 753 751 749 746 744 742 740 738 736 735 735 735 734 734 733 734 735 735 735 734 735 738 741 743 745 747 749 750 752 755 758 761 763 764 766 769 771 772 774 777 779 781 784 786 787 788 790 790 791 792 793 793
811 809 807 806 804 803 801 801 799 797 796 794 793 792 790 788 787 785 783 781 779 777 774 772 770 768 766 764 763 761 758 756 753 751 749 747 745 743 741 739 737 735 733 733 733 733 733 733 734 735 735 735 734 734 737 740 742 744 745 746 748 749 752 755 758 761 763 764 766 769 770 772 775 777 780 783 786 786 787 789 790 790 791 792 793
808 806 805 803 802 800 799 798 797 796 794 792 791 789 788 786 785 783 781 779 777 775 772 770 767 765 764 762 760 759 757 754 752 749 747 746 743 741 740 738 736 733 732 732 731 731 732 732 732 733 734 735 735 735 737 739 741 742 744 745 746 747 749 752 755 758 762 763 763 766 768 770 773 775 777 780 784 786 787 788 789 789 790 791 791